| time (UTC) | temp C | wind direction | speed KPH | gust KPH | rain 1hr cm | rain 24hr cm | rain mn cm | humidity % | barometer mb |
| 20260508013005 | 8 | 174 | 24.1 | 29.0 | 0.00 | 0.00 | 0.00 | 83 | 1008.2 |
| 20260508011505 | 8 | 182 | 29.0 | 38.6 | 0.00 | 0.00 | 0.00 | 83 | 1008.1 |
| 20260508010005 | 7 | 177 | 20.9 | 32.2 | 0.00 | 0.00 | 0.00 | 85 | 1008.2 |
| 20260508004505 | 7 | 180 | 20.9 | 30.6 | 0.00 | 0.00 | 0.00 | 84 | 1008.3 |
| 20260508003005 | 8 | 187 | 25.7 | 37.0 | 0.00 | 0.00 | 0.00 | 83 | 1008.1 |
| 20260508001505 | 7 | 186 | 25.7 | 38.6 | 0.00 | 0.00 | 0.00 | 83 | 1008.0 |
| 20260508000005 | 7 | 184 | 25.7 | 33.8 | 0.00 | 0.00 | 0.00 | 82 | 1008.0 |
| 20260507234505 | 8 | 184 | 25.7 | 40.2 | 0.00 | 0.00 | 0.00 | 82 | 1008.1 |
| 20260507233005 | 8 | 182 | 24.1 | 33.8 | 0.00 | 0.00 | 0.00 | 82 | 1008.1 |
| 20260507231504 | 8 | 184 | 25.7 | 35.4 | 0.00 | 0.00 | 0.00 | 82 | 1008.4 |
| 20260507230005 | 7 | 179 | 22.5 | 32.2 | 0.00 | 0.00 | 0.00 | 85 | 1008.4 |
| 20260507224505 | 7 | 181 | 24.1 | 32.2 | 0.00 | 0.00 | 0.00 | 86 | 1008.3 |
| 20260507223005 | 8 | 183 | 20.9 | 30.6 | 0.00 | 0.00 | 0.00 | 85 | 1008.3 |
| 20260507221504 | 8 | 184 | 24.1 | 35.4 | 0.00 | 0.00 | 0.00 | 86 | 1008.3 |
| 20260507220004 | 8 | 183 | 27.4 | 35.4 | 0.00 | 0.00 | 0.00 | 86 | 1008.2 |
| 20260507214505 | 8 | 181 | 29.0 | 38.6 | 0.00 | 0.00 | 0.00 | 86 | 1008.2 |
| 20260507213005 | 8 | 182 | 27.4 | 37.0 | 0.00 | 0.00 | 0.00 | 86 | 1008.3 |
| 20260507211505 | 8 | 181 | 29.0 | 40.2 | 0.00 | 0.00 | 0.00 | 86 | 1008.5 |
| 20260507210005 | 8 | 176 | 30.6 | 37.0 | 0.00 | 0.00 | 0.00 | 86 | 1008.5 |
| 20260507204505 | 8 | 175 | 29.0 | 37.0 | 0.00 | 0.00 | 0.00 | 85 | 1008.3 |
| 20260507203005 | 8 | 174 | 29.0 | 38.6 | 0.00 | 0.00 | 0.00 | 85 | 1008.3 |
| 20260507201504 | 8 | 174 | 24.1 | 32.2 | 0.00 | 0.00 | 0.00 | 86 | 1008.3 |
| 20260507200026 | 8 | 172 | 25.7 | 33.8 | 0.00 | 0.00 | 0.00 | 85 | 1008.2 |
| 20260507194525 | 8 | 166 | 25.7 | 33.8 | 0.00 | 0.00 | 0.00 | 86 | 1008.1 |
| 20260507193004 | 9 | 164 | 22.5 | 30.6 | 0.00 | 0.00 | 0.00 | 85 | 1008.0 |
| 20260507191505 | 9 | 170 | 22.5 | 30.6 | 0.00 | 0.00 | 0.00 | 85 | 1008.0 |
| 20260507190005 | 10 | 170 | 27.4 | 38.6 | 0.00 | 0.00 | 0.00 | 84 | 1008.2 |
| 20260507184525 | 10 | 172 | 27.4 | 37.0 | 0.00 | 0.00 | 0.00 | 82 | 1008.0 |
| 20260507183025 | 10 | 169 | 32.2 | 46.7 | 0.00 | 0.00 | 0.00 | 82 | 1007.9 |
| 20260507181504 | 11 | 171 | 29.0 | 43.5 | 0.00 | 0.00 | 0.00 | 81 | 1007.8 |
| 20260507180025 | 11 | 166 | 29.0 | 41.8 | 0.00 | 0.00 | 0.00 | 81 | 1007.8 |
| 20260507174525 | 10 | 165 | 29.0 | 40.2 | 0.00 | 0.00 | 0.00 | 81 | 1007.7 |
| 20260507173005 | 10 | 167 | 29.0 | 43.5 | 0.00 | 0.00 | 0.00 | 81 | 1007.8 |
| 20260507171504 | 10 | 163 | 29.0 | 38.6 | 0.00 | 0.00 | 0.00 | 82 | 1007.9 |
| 20260507170005 | 10 | 162 | 25.7 | 40.2 | 0.00 | 0.00 | 0.00 | 82 | 1008.1 |
| 20260507164504 | 10 | 161 | 29.0 | 40.2 | 0.00 | 0.00 | 0.00 | 82 | 1008.1 |
| 20260507163004 | 10 | 157 | 29.0 | 41.8 | 0.00 | 0.00 | 0.00 | 83 | 1008.2 |
| 20260507161525 | 10 | 152 | 30.6 | 46.7 | 0.00 | 0.00 | 0.00 | 82 | 1008.4 |
| 20260507160005 | 10 | 157 | 33.8 | 48.3 | 0.00 | 0.00 | 0.00 | 81 | 1008.4 |
| 20260507154525 | 10 | 170 | 32.2 | 49.9 | 0.00 | 0.00 | 0.00 | 79 | 1008.5 |
| 20260507153004 | 11 | 170 | 37.0 | 49.9 | 0.00 | 0.00 | 0.00 | 77 | 1008.4 |
| 20260507151504 | 11 | 163 | 37.0 | 49.9 | 0.00 | 0.00 | 0.00 | 76 | 1008.4 |
| 20260507150005 | 11 | 160 | 37.0 | 49.9 | 0.00 | 0.00 | 0.00 | 75 | 1008.6 |
| 20260507144504 | 11 | 165 | 35.4 | 53.1 | 0.00 | 0.00 | 0.00 | 76 | 1008.6 |
| 20260507143004 | 11 | 165 | 32.2 | 54.7 | 0.00 | 0.00 | 0.00 | 77 | 1008.7 |
| 20260507141504 | 11 | 162 | 35.4 | 53.1 | 0.00 | 0.00 | 0.00 | 77 | 1008.6 |
| 20260507140025 | 11 | 162 | 35.4 | 53.1 | 0.00 | 0.00 | 0.00 | 75 | 1008.9 |
| 20260507134525 | 11 | 167 | 33.8 | 48.3 | 0.00 | 0.00 | 0.00 | 76 | 1009.0 |
| 20260507133004 | 11 | 165 | 32.2 | 49.9 | 0.00 | 0.00 | 0.00 | 74 | 1009.2 |
| 20260507131504 | 11 | 172 | 27.4 | 40.2 | 0.00 | 0.00 | 0.00 | 75 | 1009.3 |
| 20260507130004 | 11 | 182 | 24.1 | 35.4 | 0.00 | 0.00 | 0.00 | 73 | 1009.3 |
| 20260507124525 | 11 | 175 | 27.4 | 38.6 | 0.00 | 0.00 | 0.00 | 70 | 1009.3 |
| 20260507123004 | 11 | 172 | 30.6 | 41.8 | 0.00 | 0.00 | 0.00 | 71 | 1009.3 |
| 20260507121504 | 12 | 170 | 27.4 | 43.5 | 0.00 | 0.00 | 0.00 | 71 | 1009.3 |
| 20260507120005 | 13 | 164 | 33.8 | 48.3 | 0.00 | 0.00 | 0.00 | 71 | 1009.1 |
| 20260507114504 | 12 | 158 | 30.6 | 46.7 | 0.00 | 0.00 | 0.00 | 69 | 1009.2 |
| 20260507113005 | 11 | 158 | 24.1 | 33.8 | 0.00 | 0.00 | 0.00 | 74 | 1009.2 |
| 20260507111506 | 11 | 173 | 27.4 | 38.6 | 0.00 | 0.00 | 0.00 | 72 | 1009.3 |
| 20260507110005 | 11 | 184 | 25.7 | 40.2 | 0.00 | 0.00 | 0.00 | 68 | 1009.3 |
| 20260507104504 | 13 | 180 | 25.7 | 37.0 | 0.00 | 0.00 | 0.00 | 67 | 1009.3 |
| 20260507103004 | 13 | 168 | 32.2 | 46.7 | 0.00 | 0.00 | 0.00 | 67 | 1009.3 |
| 20260507101504 | 11 | 178 | 29.0 | 40.2 | 0.00 | 0.00 | 0.00 | 70 | 1009.1 |
| 20260507100004 | 12 | 165 | 27.4 | 48.3 | 0.00 | 0.00 | 0.00 | 69 | 1009.2 |
| 20260507094504 | 12 | 166 | 29.0 | 43.5 | 0.00 | 0.00 | 0.00 | 72 | 1009.3 |
| 20260507093004 | 11 | 172 | 30.6 | 48.3 | 0.00 | 0.00 | 0.00 | 74 | 1009.4 |
| 20260507091525 | 11 | 161 | 29.0 | 46.7 | 0.00 | 0.00 | 0.00 | 75 | 1009.4 |
| 20260507090005 | 10 | 159 | 30.6 | 46.7 | 0.00 | 0.00 | 0.00 | 78 | 1009.5 |
| 20260507084504 | 9 | 160 | 32.2 | 43.5 | 0.00 | 0.00 | 0.00 | 79 | 1009.5 |
| 20260507083005 | 8 | 161 | 27.4 | 38.6 | 0.00 | 0.00 | 0.00 | 82 | 1009.7 |
| 20260507081504 | 7 | 161 | 25.7 | 33.8 | 0.00 | 0.00 | 0.00 | 84 | 1009.6 |
| 20260507080025 | 7 | 165 | 24.1 | 40.2 | 0.00 | 0.00 | 0.00 | 84 | 1009.7 |
| 20260507074504 | 6 | 171 | 27.4 | 38.6 | 0.00 | 0.00 | 0.00 | 83 | 1009.7 |
| 20260507073025 | 6 | 171 | 25.7 | 37.0 | 0.00 | 0.00 | 0.00 | 83 | 1009.8 |
| 20260507071504 | 6 | 162 | 25.7 | 35.4 | 0.00 | 0.00 | 0.00 | 83 | 1009.8 |
| 20260507070009 | 6 | 157 | 22.5 | 33.8 | 0.00 | 0.00 | 0.00 | 84 | 1009.8 |
| 20260507064504 | 6 | 162 | 24.1 | 33.8 | 0.00 | 0.00 | 0.00 | 84 | 1009.7 |
| 20260507063004 | 5 | 168 | 24.1 | 35.4 | 0.00 | 0.00 | 0.00 | 84 | 1009.8 |
| 20260507061504 | 5 | 166 | 29.0 | 37.0 | 0.00 | 0.00 | 0.00 | 84 | 1009.7 |
| 20260507060025 | 5 | 168 | 27.4 | 35.4 | 0.00 | 0.00 | 0.00 | 84 | 1009.7 |
| 20260507054504 | 5 | 168 | 30.6 | 40.2 | 0.00 | 0.00 | 0.00 | 83 | 1009.7 |
| 20260507053005 | 5 | 168 | 30.6 | 40.2 | 0.00 | 0.00 | 0.00 | 84 | 1009.8 |
| 20260507051504 | 5 | 166 | 30.6 | 40.2 | 0.00 | 0.00 | 0.00 | 84 | 1009.9 |
| 20260507050025 | 5 | 166 | 29.0 | 38.6 | 0.00 | 0.00 | 0.00 | 84 | 1009.9 |
| 20260507044504 | 5 | 169 | 30.6 | 38.6 | 0.00 | 0.00 | 0.00 | 83 | 1010.0 |
| 20260507043004 | 5 | 170 | 30.6 | 35.4 | 0.00 | 0.00 | 0.00 | 83 | 1010.0 |
| 20260507041525 | 5 | 170 | 33.8 | 41.8 | 0.00 | 0.00 | 0.00 | 83 | 1010.0 |
| 20260507040004 | 5 | 170 | 35.4 | 46.7 | 0.00 | 0.00 | 0.00 | 82 | 1009.9 |
| 20260507034504 | 5 | 172 | 32.2 | 43.5 | 0.00 | 0.00 | 0.00 | 81 | 1010.0 |
| 20260507033004 | 5 | 175 | 33.8 | 46.7 | 0.00 | 0.00 | 0.00 | 79 | 1010.1 |
| 20260507031525 | 6 | 173 | 35.4 | 48.3 | 0.00 | 0.00 | 0.00 | 78 | 1010.1 |
| 20260507030025 | 5 | 168 | 29.0 | 40.2 | 0.00 | 0.00 | 0.00 | 79 | 1010.1 |
| 20260507024504 | 5 | 176 | 29.0 | 38.6 | 0.00 | 0.00 | 0.00 | 79 | 1010.3 |
| 20260507023004 | 5 | 177 | 25.7 | 37.0 | 0.00 | 0.00 | 0.00 | 81 | 1010.4 |
| 20260507021504 | 5 | 175 | 27.4 | 37.0 | 0.00 | 0.00 | 0.00 | 81 | 1010.3 |
| 20260507020004 | 5 | 173 | 29.0 | 40.2 | 0.00 | 0.00 | 0.00 | 81 | 1010.5 |
| 20260507014504 | 5 | 172 | 25.7 | 38.6 | 0.00 | 0.00 | 0.00 | 81 | 1010.6 |